,,Stat1,,Stat2,,Stat3,,Stat4,,Wind1,,Wind1,
time,status,PR1M_SUM,status,RH1M_AVG,status,SR1M_AVG,status,TA1M_AVG,status,W1dAve1m,status,W1sAve1m,
1999-10-21, 00:01:00,VALID,0,VALID,97.0552,VALID,-0.0679233,VALID,19.2979,VALID,312,VALID,0.0641892,
1999-10-21, 00:02:00,VALID,0,VALID,97.3172,VALID,-0.0849042,VALID,19.2917,VALID,69,VALID,0.358319,
1999-10-21, 00:03:00,VALID,0,VALID,97.3668,VALID,-0.0509425,VALID,19.2554,VALID,94,VALID,0.33346,
1999-10-21, 00:04:00,VALID,0,VALID,97.3388,VALID,-0.0509425,VALID,19.2332,VALID,93,VALID,0,
1999-10-21, 00:05:00,VALID,0,VALID,97.4634,VALID,0.0169808,VALID,19.2285,VALID,93,VALID,0,
1999-10-21, 00:06:00,VALID,0,VALID,97.5766,VALID,0,VALID,19.2188,VALID,93,VALID,0,
1999-10-21, 00:07:00,VALID,0,VALID,97.6719,VALID,0.0169808,VALID,19.2094,VALID,93,VALID,0,
1999-10-21, 00:08:00,VALID,0,VALID,97.747,VALID,0,VALID,19.1897,VALID,93,VALID,0,
1999-10-21, 00:09:00,VALID,0,VALID,97.8385,VALID,0.0169808,VALID,19.1668,VALID,93,VALID,0,
1999-10-21, 00:10:00,VALID,0,VALID,97.9403,VALID,0.0509425,VALID,19.1835,VALID,93,VALID,0,
1999-10-21, 00:11:00,VALID,0,VALID,97.9504,VALID,0,VALID,19.1676,VALID,93,VALID,0,
1999-10-21, 00:12:00,VALID,0,VALID,97.9911,VALID,0.0169808,VALID,19.1748,VALID,90,VALID,0,
1999-10-21, 00:13:00,VALID,0,VALID,97.9924,VALID,0.0339617,VALID,19.1479,VALID,40,VALID,0,
1999-10-21, 00:14:00,VALID,0,VALID,98.0305,VALID,0.0509425,VALID,19.1514,VALID,47,VALID,0,
1999-10-21, 00:15:00,VALID,0,VALID,98.0356,VALID,0.0339617,VALID,19.1449,VALID,67,VALID,0,
1999-10-21, 00:16:00,VALID,0,VALID,98.0725,VALID,0.0339617,VALID,19.1313,VALID,84,VALID,0.396326,
1999-10-21, 00:17:00,VALID,0,VALID,98.0483,VALID,0.0339617,VALID,19.125,VALID,79,VALID,0.513158,
1999-10-21, 00:18:00,VALID,0,VALID,98.0839,VALID,0.0169808,VALID,19.1223,VALID,108,VALID,0.446752,
1999-10-21, 00:19:00,VALID,0,VALID,98.0611,VALID,0.0339617,VALID,19.0934,VALID,102,VALID,0.367599,
1999-10-21, 00:20:00,VALID,0,VALID,98.1106,VALID,0.0169808,VALID,19.0708,VALID,100,VALID,0.0197368,
1999-10-21, 00:21:01,VALID,0,VALID,98.2785,VALID,0,VALID,19.0802,VALID,86,VALID,0.556127,
1999-10-21, 00:22:00,VALID,0,VALID,98.4209,VALID,0.0169808,VALID,19.0962,VALID,54,VALID,0.757813,
1999-10-21, 00:23:00,VALID,0,VALID,98.3993,VALID,0,VALID,19.1123,VALID,78,VALID,0.815584,
1999-10-21, 00:24:00,VALID,0,VALID,98.351,VALID,0.0169808,VALID,19.1253,VALID,86,VALID,0.582348,
1999-10-21, 00:25:00,VALID,0,VALID,98.2404,VALID,0.0169808,VALID,19.1288,VALID,71,VALID,0.831414,
1999-10-21, 00:26:00,VALID,0,VALID,98.1793,VALID,0,VALID,19.1387,VALID,87,VALID,0.700658,
1999-10-21, 00:27:00,VALID,0,VALID,98.1602,VALID,0.0169808,VALID,19.1613,VALID,89,VALID,0.583882,
1999-10-21, 00:28:00,VALID,0,VALID,98.0356,VALID,0.0339617,VALID,19.1646,VALID,91,VALID,0.403372,
1999-10-21, 00:29:00,VALID,0,VALID,97.9275,VALID,0,VALID,19.1419,VALID,89,VALID,0.652755,
1999-10-21, 00:30:00,VALID,0,VALID,97.8894,VALID,-0.0849042,VALID,19.1491,VALID,101,VALID,0.889569,
1999-10-21, 00:31:00,VALID,0,VALID,97.8385,VALID,-0.101885,VALID,19.1984,VALID,101,VALID,0.883224,
1999-10-21, 00:32:00,VALID,0,VALID,97.6541,VALID,-0.0849042,VALID,19.2145,VALID,81,VALID,0.888091,
1999-10-21, 00:33:00,VALID,0,VALID,97.5028,VALID,-0.0849042,VALID,19.233,VALID,81,VALID,0.813978,
1999-10-21, 00:34:00,VALID,0,VALID,97.4481,VALID,-0.101885,VALID,19.2429,VALID,81,VALID,0.725123,
1999-10-21, 00:35:00,VALID,0,VALID,97.3401,VALID,0.0169808,VALID,19.2449,VALID,65,VALID,0.726151,
1999-10-21, 00:36:00,VALID,0,VALID,97.3172,VALID,0,VALID,19.2486,VALID,79,VALID,0.500411,
1999-10-21, 00:37:00,VALID,0,VALID,97.3019,VALID,0.0339617,VALID,19.2422,VALID,76,VALID,0.72389,
1999-10-21, 00:38:00,VALID,0,VALID,97.3006,VALID,0.0169808,VALID,19.2422,VALID,56,VALID,0.982052,
1999-10-21, 00:39:00,VALID,0,VALID,97.3286,VALID,0.0339617,VALID,19.2255,VALID,84,VALID,0.489926,
1999-10-21, 00:40:00,VALID,0,VALID,97.4138,VALID,0.0169808,VALID,19.2292,VALID,78,VALID,0.235853,
1999-10-21, 00:41:00,VALID,0,VALID,97.4787,VALID,0.0679233,VALID,19.235,VALID,78,VALID,0.127467,
1999-10-21, 00:42:00,VALID,0,VALID,97.5003,VALID,0.0509425,VALID,19.2382,VALID,76,VALID,0.253495,
1999-10-21, 00:43:00,VALID,0,VALID,97.5257,VALID,0.0169808,VALID,19.2549,VALID,66,VALID,0.318257,
1999-10-21, 00:44:01,VALID,0,VALID,97.5206,VALID,0.0339617,VALID,19.2486,VALID,11,VALID,0.12685,
1999-10-21, 00:45:00,VALID,0,VALID,97.6224,VALID,0.0679233,VALID,19.2576,VALID,11,VALID,0.13528,
1999-10-21, 00:46:00,VALID,0,VALID,97.602,VALID,0.0339617,VALID,19.2447,VALID,301,VALID,0.317779,
1999-10-21, 00:47:00,VALID,0,VALID,97.6948,VALID,0.0169808,VALID,19.2389,VALID,290,VALID,0.0213816,
1999-10-21, 00:48:00,VALID,0,VALID,97.8779,VALID,0.0169808,VALID,19.2193,VALID,290,VALID,0,
1999-10-21, 00:49:00,VALID,0,VALID,97.9949,VALID,0.0169808,VALID,19.2066,VALID,290,VALID,0,
1999-10-21, 00:50:00,VALID,0,VALID,98.0318,VALID,-0.0679233,VALID,19.1782,VALID,290,VALID,0,
1999-10-21, 00:51:00,VALID,0,VALID,98.056,VALID,0,VALID,19.1521,VALID,285,VALID,0,
1999-10-21, 00:52:00,VALID,0,VALID,98.0916,VALID,-0.0169808,VALID,19.1195,VALID,257,VALID,0,
1999-10-21, 00:53:00,VALID,0,VALID,98.0992,VALID,-0.0169808,VALID,19.0904,VALID,245,VALID,0,
1999-10-21, 00:54:00,VALID,0,VALID,98.0814,VALID,0,VALID,19.0551,VALID,245,VALID,0,
1999-10-21, 00:55:00,VALID,0,VALID,98.1157,VALID,-0.0509425,VALID,19.0362,VALID,245,VALID,0,
1999-10-21, 00:56:00,VALID,0,VALID,98.1513,VALID,-0.0679233,VALID,19.0138,VALID,245,VALID,0,
1999-10-21, 00:57:00,VALID,0,VALID,98.1997,VALID,-0.0169808,VALID,18.9974,VALID,245,VALID,0,
1999-10-21, 00:58:00,VALID,0,VALID,98.1513,VALID,0,VALID,18.9586,VALID,245,VALID,0,
1999-10-21, 00:59:00,VALID,0,VALID,98.117,VALID,-0.0169808,VALID,18.9267,VALID,245,VALID,0,
1999-10-21, 01:00:00,VALID,0,VALID,98.1971,VALID,-0.0339617,VALID,18.9168,VALID,245,VALID,0,
1999-10-21, 01:01:00,VALID,0,VALID,98.3637,VALID,-0.0339617,VALID,18.9036,VALID,245,VALID,0,
1999-10-21, 01:02:00,VALID,0,VALID,98.468,VALID,-0.0339617,VALID,18.9202,VALID,251,VALID,0,
1999-10-21, 01:03:00,VALID,0,VALID,98.4858,VALID,-0.0339617,VALID,18.9105,VALID,261,VALID,0.191201,
1999-10-21, 01:04:00,VALID,0,VALID,98.557,VALID,-0.0339617,VALID,18.8969,VALID,264,VALID,0.211993,
1999-10-21, 01:05:00,VALID,0,VALID,98.5443,VALID,0,VALID,18.8971,VALID,247,VALID,0.386513,
1999-10-21, 01:06:01,VALID,0,VALID,98.4057,VALID,-0.0679233,VALID,18.8747,VALID,242,VALID,0.166735,
1999-10-21, 01:07:00,VALID,0,VALID,98.2887,VALID,-0.0339617,VALID,18.8325,VALID,243,VALID,0,
1999-10-21, 01:08:00,VALID,0,VALID,98.2137,VALID,-0.0509425,VALID,18.7999,VALID,237,VALID,0,
1999-10-21, 01:09:00,VALID,0,VALID,98.2086,VALID,-0.0339617,VALID,18.7807,VALID,241,VALID,0,
1999-10-21, 01:10:00,VALID,0,VALID,98.2861,VALID,-0.0169808,VALID,18.7551,VALID,241,VALID,0,
1999-10-21, 01:11:00,VALID,0,VALID,98.2925,VALID,-0.0849042,VALID,18.7396,VALID,238,VALID,0,
1999-10-21, 01:12:00,VALID,0,VALID,98.3828,VALID,-0.0339617,VALID,18.7128,VALID,232,VALID,0,
1999-10-21, 01:13:00,VALID,0,VALID,98.4171,VALID,-0.0169808,VALID,18.7133,VALID,226,VALID,0,
1999-10-21, 01:14:00,VALID,0,VALID,98.3434,VALID,-0.0169808,VALID,18.6673,VALID,221,VALID,0,
1999-10-21, 01:15:00,VALID,0,VALID,98.2912,VALID,0,VALID,18.6551,VALID,218,VALID,0,
1999-10-21, 01:16:00,VALID,0,VALID,98.4464,VALID,-0.0339617,VALID,18.6514,VALID,214,VALID,0,
1999-10-21, 01:17:01,VALID,0,VALID,98.4972,VALID,-0.0169808,VALID,18.6447,VALID,185,VALID,0,
1999-10-21, 01:18:00,VALID,0,VALID,98.4921,VALID,-0.0509425,VALID,18.6225,VALID,169,VALID,0,
1999-10-21, 01:19:00,VALID,0,VALID,98.6854,VALID,-0.0339617,VALID,18.6548,VALID,169,VALID,0,
1999-10-21, 01:20:00,VALID,0,VALID,98.777,VALID,-0.0509425,VALID,18.6879,VALID,169,VALID,0,
1999-10-21, 01:21:00,VALID,0,VALID,98.7808,VALID,-0.0339617,VALID,18.6807,VALID,164,VALID,0,
1999-10-21, 01:22:00,VALID,0,VALID,98.6536,VALID,-0.0339617,VALID,18.6581,VALID,162,VALID,0,
1999-10-21, 01:23:00,VALID,0,VALID,98.6549,VALID,-0.0849042,VALID,18.6387,VALID,162,VALID,0,
1999-10-21, 01:24:00,VALID,0,VALID,98.7426,VALID,-0.0169808,VALID,18.6678,VALID,162,VALID,0,
1999-10-21, 01:25:00,VALID,0,VALID,98.7668,VALID,-0.0509425,VALID,18.6742,VALID,162,VALID,0,
1999-10-21, 01:26:00,VALID,0,VALID,98.6803,VALID,-0.0679233,VALID,18.6678,VALID,162,VALID,0,
1999-10-21, 01:27:00,VALID,0,VALID,98.6256,VALID,-0.0339617,VALID,18.6648,VALID,162,VALID,0,
1999-10-21, 01:28:01,VALID,0,VALID,98.6473,VALID,-0.0849042,VALID,18.6777,VALID,162,VALID,0,
1999-10-21, 01:29:00,VALID,0,VALID,98.7668,VALID,-0.0679233,VALID,18.7101,VALID,117,VALID,0,
1999-10-21, 01:30:00,VALID,0,VALID,98.8927,VALID,-0.0339617,VALID,18.7814,VALID,91,VALID,0,
1999-10-21, 01:31:00,VALID,0,VALID,98.8558,VALID,-0.0339617,VALID,18.8103,VALID,101,VALID,0,
1999-10-21, 01:32:00,VALID,0,VALID,98.7948,VALID,-0.0849042,VALID,18.8336,VALID,101,VALID,0,
1999-10-21, 01:33:00,VALID,0,VALID,98.7388,VALID,-0.0679233,VALID,18.8463,VALID,106,VALID,0,
1999-10-21, 01:34:00,VALID,0,VALID,98.5328,VALID,-0.0849042,VALID,18.8302,VALID,114,VALID,0,
1999-10-21, 01:35:00,VALID,0,VALID,98.3548,VALID,-0.0679233,VALID,18.8038,VALID,117,VALID,0,
1999-10-21, 01:36:00,VALID,0,VALID,98.2899,VALID,-0.0509425,VALID,18.8073,VALID,114,VALID,0.00612331,
1999-10-21, 01:37:00,VALID,0,VALID,98.2531,VALID,-0.0509425,VALID,18.8038,VALID,98,VALID,0.751439,
1999-10-21, 01:38:00,VALID,0,VALID,98.2022,VALID,-0.101885,VALID,18.8202,VALID,96,VALID,0.415913,
1999-10-21, 01:39:01,VALID,0,VALID,98.0865,VALID,-0.0849042,VALID,18.8138,VALID,96,VALID,0.115954,
1999-10-21, 01:40:00,VALID,0,VALID,98.0407,VALID,-0.0679233,VALID,18.8205,VALID,96,VALID,0,
1999-10-21, 01:41:00,VALID,0,VALID,98.0242,VALID,-0.0509425,VALID,18.82,VALID,119,VALID,0,
1999-10-21, 01:42:00,VALID,0,VALID,97.8792,VALID,-0.0169808,VALID,18.8205,VALID,171,VALID,0,
1999-10-21, 01:43:00,VALID,0,VALID,97.7597,VALID,-0.0169808,VALID,18.7971,VALID,175,VALID,0,
1999-10-21, 01:44:00,VALID,0,VALID,97.6567,VALID,-0.0679233,VALID,18.8073,VALID,172,VALID,0,
1999-10-21, 01:45:00,VALID,0,VALID,97.4876,VALID,-0.0849042,VALID,18.7974,VALID,148,VALID,0,
1999-10-21, 01:46:00,VALID,0,VALID,97.3591,VALID,-0.0509425,VALID,18.7941,VALID,174,VALID,0,
1999-10-21, 01:47:00,VALID,0,VALID,97.2599,VALID,-0.0509425,VALID,18.7976,VALID,196,VALID,0,
1999-10-21, 01:48:00,VALID,0,VALID,97.3146,VALID,-0.0339617,VALID,18.7944,VALID,218,VALID,0.32463,
1999-10-21, 01:49:01,VALID,0,VALID,97.3324,VALID,0,VALID,18.7807,VALID,203,VALID,0.636308,
1999-10-21, 01:50:01,VALID,0,VALID,97.218,VALID,-0.0339617,VALID,18.7812,VALID,215,VALID,0.357052,
1999-10-21, 01:51:00,VALID,0,VALID,97.1926,VALID,-0.0679233,VALID,18.7775,VALID,199,VALID,0.281661,
1999-10-21, 01:52:00,VALID,0,VALID,97.045,VALID,-0.0679233,VALID,18.7849,VALID,211,VALID,0.463682,
1999-10-21, 01:53:00,VALID,0,VALID,96.9166,VALID,-0.0849042,VALID,18.7616,VALID,219,VALID,0.620477,
1999-10-21, 01:54:00,VALID,0,VALID,97.0107,VALID,-0.0679233,VALID,18.7519,VALID,214,VALID,0.569079,
1999-10-21, 01:55:00,VALID,0,VALID,97.1379,VALID,-0.101885,VALID,18.7359,VALID,228,VALID,0.329359,
1999-10-21, 01:56:00,VALID,0,VALID,97.2994,VALID,-0.0849042,VALID,18.723,VALID,222,VALID,0.402549,
1999-10-21, 01:57:00,VALID,0,VALID,97.4443,VALID,-0.0679233,VALID,18.7138,VALID,211,VALID,0.352796,
1999-10-21, 01:58:00,VALID,0,VALID,97.5842,VALID,-0.0679233,VALID,18.6839,VALID,199,VALID,0.33826,
1999-10-21, 01:59:00,VALID,0,VALID,97.616,VALID,-0.0849042,VALID,18.6618,VALID,181,VALID,0.329564,
1999-10-21, 02:00:00,VALID,0,VALID,97.7521,VALID,-0.101885,VALID,18.6359,VALID,177,VALID,0.491343,
1999-10-21, 02:01:00,VALID,0,VALID,97.9657,VALID,-0.0509425,VALID,18.6163,VALID,177,VALID,0.642475,
1999-10-21, 02:02:00,VALID,0,VALID,98.1297,VALID,-0.0679233,VALID,18.5966,VALID,196,VALID,0.499589,
1999-10-21, 02:03:00,VALID,0,VALID,98.2607,VALID,-0.101885,VALID,18.5909,VALID,205,VALID,0.592722,
1999-10-21, 02:04:00,VALID,0,VALID,98.323,VALID,-0.0679233,VALID,18.571,VALID,202,VALID,0.609992,
1999-10-21, 02:05:00,VALID,0,VALID,98.4031,VALID,-0.101885,VALID,18.5752,VALID,202,VALID,0.516447,
1999-10-21, 02:06:00,VALID,0,VALID,98.4603,VALID,-0.0849042,VALID,18.565,VALID,197,VALID,0.122255,
1999-10-21, 02:07:00,VALID,0,VALID,98.4553,VALID,-0.0339617,VALID,18.5611,VALID,203,VALID,0,
1999-10-21, 02:08:00,VALID,0,VALID,98.4616,VALID,-0.0509425,VALID,18.5673,VALID,202,VALID,0,
1999-10-21, 02:09:00,VALID,0,VALID,98.4362,VALID,-0.0679233,VALID,18.5742,VALID,203,VALID,0,
1999-10-21, 02:10:00,VALID,0,VALID,98.4146,VALID,-0.0849042,VALID,18.5906,VALID,203,VALID,0,
1999-10-21, 02:11:00,VALID,0,VALID,98.4069,VALID,-0.0509425,VALID,18.5969,VALID,203,VALID,0,
1999-10-21, 02:12:00,VALID,0,VALID,98.379,VALID,-0.0679233,VALID,18.5839,VALID,203,VALID,0,
1999-10-21, 02:13:00,VALID,0,VALID,98.3701,VALID,-0.0849042,VALID,18.5745,VALID,203,VALID,0,
1999-10-21, 02:14:00,VALID,0,VALID,98.3917,VALID,-0.0679233,VALID,18.5613,VALID,203,VALID,0,
1999-10-21, 02:15:00,VALID,0,VALID,98.4743,VALID,-0.0339617,VALID,18.5613,VALID,203,VALID,0,
1999-10-21, 02:16:00,VALID,0,VALID,98.571,VALID,-0.101885,VALID,18.5717,VALID,182,VALID,0,
1999-10-21, 02:17:00,VALID,0,VALID,98.5926,VALID,-0.0679233,VALID,18.5717,VALID,177,VALID,0,
1999-10-21, 02:18:00,VALID,0,VALID,98.5672,VALID,-0.101885,VALID,18.565,VALID,177,VALID,0,
1999-10-21, 02:19:00,VALID,0,VALID,98.5125,VALID,-0.118866,VALID,18.5553,VALID,177,VALID,0,
1999-10-21, 02:20:00,VALID,0,VALID,98.515,VALID,0.0169808,VALID,18.5502,VALID,177,VALID,0,
1999-10-21, 02:21:01,VALID,0,VALID,98.5417,VALID,0.0169808,VALID,18.5571,VALID,177,VALID,0,
1999-10-21, 02:22:00,VALID,0,VALID,98.585,VALID,0.0169808,VALID,18.5634,VALID,177,VALID,0,
1999-10-21, 02:23:00,VALID,0,VALID,98.6091,VALID,0,VALID,18.5604,VALID,177,VALID,0,
1999-10-21, 02:24:00,VALID,0,VALID,98.6333,VALID,0,VALID,18.5698,VALID,177,VALID,0,
1999-10-21, 02:25:00,VALID,0,VALID,98.5989,VALID,0.0339617,VALID,18.5634,VALID,178,VALID,0,
1999-10-21, 02:26:00,VALID,0,VALID,98.5977,VALID,0,VALID,18.5666,VALID,178,VALID,0,
1999-10-21, 02:27:00,VALID,0,VALID,98.6282,VALID,0,VALID,18.5768,VALID,178,VALID,0,
1999-10-21, 02:28:00,VALID,0,VALID,98.6651,VALID,0.0169808,VALID,18.5825,VALID,178,VALID,0,
1999-10-21, 02:29:00,VALID,0,VALID,98.6435,VALID,-0.0169808,VALID,18.5927,VALID,178,VALID,0,
1999-10-21, 02:30:00,VALID,0,VALID,98.632,VALID,0.0169808,VALID,18.5825,VALID,178,VALID,0,
1999-10-21, 02:31:00,VALID,0,VALID,98.5735,VALID,0.0339617,VALID,18.5964,VALID,178,VALID,0,
1999-10-21, 02:32:00,VALID,0,VALID,98.5036,VALID,0,VALID,18.5962,VALID,178,VALID,0,
1999-10-21, 02:33:00,VALID,0,VALID,98.4591,VALID,0.0509425,VALID,18.6026,VALID,178,VALID,0,
1999-10-21, 02:34:00,VALID,0,VALID,98.4565,VALID,0.0339617,VALID,18.5892,VALID,178,VALID,0,
1999-10-21, 02:35:00,VALID,0,VALID,98.3993,VALID,0.0509425,VALID,18.5855,VALID,178,VALID,0,
1999-10-21, 02:36:00,VALID,0,VALID,98.2404,VALID,0.0169808,VALID,18.5862,VALID,178,VALID,0,
1999-10-21, 02:37:00,VALID,0,VALID,98.1958,VALID,0.0339617,VALID,18.5802,VALID,152,VALID,0,
1999-10-21, 02:38:00,VALID,0,VALID,98.1335,VALID,0,VALID,18.5569,VALID,139,VALID,0,
1999-10-21, 02:39:00,VALID,0,VALID,98.0242,VALID,0.0169808,VALID,18.538,VALID,137,VALID,0,
1999-10-21, 02:40:00,VALID,0,VALID,98.0153,VALID,0,VALID,18.528,VALID,138,VALID,0,
1999-10-21, 02:41:00,VALID,0,VALID,97.9275,VALID,0,VALID,18.5181,VALID,138,VALID,0,
1999-10-21, 02:42:00,VALID,0,VALID,97.6885,VALID,0,VALID,18.5153,VALID,138,VALID,0,
1999-10-21, 02:43:00,VALID,0,VALID,97.5893,VALID,0.0339617,VALID,18.5246,VALID,138,VALID,0,
1999-10-21, 02:44:00,VALID,0,VALID,97.4977,VALID,0,VALID,18.5248,VALID,138,VALID,0,
1999-10-21, 02:45:00,VALID,0,VALID,97.307,VALID,0,VALID,18.5216,VALID,139,VALID,0,
1999-10-21, 02:46:00,VALID,0,VALID,97.0768,VALID,0.0509425,VALID,18.5146,VALID,144,VALID,0,
1999-10-21, 02:47:00,VALID,0,VALID,96.6623,VALID,0.0509425,VALID,18.5179,VALID,156,VALID,0,
1999-10-21, 02:48:00,VALID,0,VALID,96.4703,VALID,0.0169808,VALID,18.5306,VALID,164,VALID,0,
1999-10-21, 02:49:00,VALID,0,VALID,96.7259,VALID,0.0339617,VALID,18.5541,VALID,172,VALID,0,
1999-10-21, 02:50:00,VALID,0,VALID,96.6686,VALID,0.0339617,VALID,18.5507,VALID,172,VALID,0,
1999-10-21, 02:51:00,VALID,0,VALID,96.8162,VALID,0.0169808,VALID,18.5502,VALID,172,VALID,0,
1999-10-21, 02:52:00,VALID,0,VALID,97.0578,VALID,0.0169808,VALID,18.5567,VALID,172,VALID,0,
1999-10-21, 02:53:00,VALID,0,VALID,97.2002,VALID,0.0509425,VALID,18.5733,VALID,168,VALID,0,
1999-10-21, 02:54:00,VALID,0,VALID,97.2956,VALID,0.0339617,VALID,18.5569,VALID,167,VALID,0,
1999-10-21, 02:55:00,VALID,0,VALID,97.382,VALID,0.0509425,VALID,18.5537,VALID,167,VALID,0,
1999-10-21, 02:56:00,VALID,0,VALID,97.4113,VALID,0.0339617,VALID,18.5502,VALID,167,VALID,0,
1999-10-21, 02:57:00,VALID,0,VALID,97.4062,VALID,0.0339617,VALID,18.5412,VALID,167,VALID,0,
1999-10-21, 02:58:00,VALID,0,VALID,97.2472,VALID,0.0339617,VALID,18.5049,VALID,167,VALID,0,
1999-10-21, 02:59:00,VALID,0,VALID,96.9115,VALID,0.0509425,VALID,18.4726,VALID,167,VALID,0,
1999-10-21, 03:00:00,VALID,0,VALID,96.7144,VALID,0.0169808,VALID,18.4567,VALID,167,VALID,0,
1999-10-21, 03:01:00,VALID,0,VALID,96.8212,VALID,0.0339617,VALID,18.4502,VALID,167,VALID,0,
1999-10-21, 03:02:00,VALID,0,VALID,96.9586,VALID,0.0169808,VALID,18.4472,VALID,167,VALID,0,
1999-10-21, 03:03:00,VALID,0,VALID,97.0463,VALID,0.0169808,VALID,18.4472,VALID,167,VALID,0,
1999-10-21, 03:04:00,VALID,0,VALID,96.9217,VALID,0.0169808,VALID,18.4345,VALID,167,VALID,0,
1999-10-21, 03:05:00,VALID,0,VALID,96.8899,VALID,-0.0509425,VALID,18.4223,VALID,167,VALID,0,
1999-10-21, 03:06:00,VALID,0,VALID,96.8886,VALID,-0.0849042,VALID,18.4163,VALID,167,VALID,0,
1999-10-21, 03:07:00,VALID,0,VALID,97.0311,VALID,-0.0849042,VALID,18.413,VALID,166,VALID,0,
1999-10-21, 03:08:00,VALID,0,VALID,97.0667,VALID,-0.0679233,VALID,18.3939,VALID,166,VALID,0,
1999-10-21, 03:09:00,VALID,0,VALID,97.1951,VALID,-0.0849042,VALID,18.3807,VALID,246,VALID,0,
1999-10-21, 03:10:00,VALID,0,VALID,97.3337,VALID,-0.0849042,VALID,18.3844,VALID,165,VALID,0,
1999-10-21, 03:11:00,VALID,0,VALID,97.3884,VALID,-0.0849042,VALID,18.3648,VALID,121,VALID,0,
1999-10-21, 03:12:00,VALID,0,VALID,97.2777,VALID,-0.0849042,VALID,18.3322,VALID,125,VALID,0,
1999-10-21, 03:13:00,VALID,0,VALID,97.2091,VALID,-0.0679233,VALID,18.2964,VALID,118,VALID,0,
1999-10-21, 03:14:00,VALID,0,VALID,97.293,VALID,-0.0679233,VALID,18.274,VALID,117,VALID,0,
1999-10-21, 03:15:00,VALID,0,VALID,97.4418,VALID,-0.101885,VALID,18.2544,VALID,117,VALID,0,
1999-10-21, 03:16:00,VALID,0,VALID,97.541,VALID,-0.0849042,VALID,18.2615,VALID,117,VALID,0,
1999-10-21, 03:17:01,VALID,0,VALID,97.7177,VALID,-0.0679233,VALID,18.2775,VALID,111,VALID,0,
1999-10-21, 03:18:00,VALID,0,VALID,97.7266,VALID,-0.0679233,VALID,18.2671,VALID,106,VALID,0.777449,
1999-10-21, 03:19:00,VALID,0,VALID,97.4494,VALID,-0.0679233,VALID,18.2772,VALID,49,VALID,0.283306,
1999-10-21, 03:20:00,VALID,0,VALID,97.5855,VALID,-0.0849042,VALID,18.316,VALID,303,VALID,0,
1999-10-21, 03:21:00,VALID,0,VALID,97.6503,VALID,-0.0679233,VALID,18.3421,VALID,282,VALID,0,
1999-10-21, 03:22:00,VALID,0,VALID,97.6923,VALID,-0.101885,VALID,18.3578,VALID,283,VALID,0,
1999-10-21, 03:23:00,VALID,0,VALID,97.8449,VALID,-0.0849042,VALID,18.3839,VALID,288,VALID,0,
1999-10-21, 03:24:00,VALID,0,VALID,97.5537,VALID,-0.0679233,VALID,18.3772,VALID,274,VALID,0,
1999-10-21, 03:25:00,VALID,0,VALID,97.2383,VALID,-0.101885,VALID,18.4003,VALID,140,VALID,0,
1999-10-21, 03:26:00,VALID,0,VALID,96.9319,VALID,-0.0679233,VALID,18.4267,VALID,122,VALID,0,
1999-10-21, 03:27:00,VALID,0,VALID,96.7017,VALID,-0.0849042,VALID,18.4063,VALID,122,VALID,0,
1999-10-21, 03:28:00,VALID,0,VALID,96.4347,VALID,-0.101885,VALID,18.4066,VALID,143,VALID,0,
1999-10-21, 03:29:00,VALID,0,VALID,96.305,VALID,-0.0509425,VALID,18.4066,VALID,191,VALID,0,
1999-10-21, 03:30:00,VALID,0,VALID,96.427,VALID,-0.0679233,VALID,18.4036,VALID,208,VALID,0,
1999-10-21, 03:31:00,VALID,0,VALID,96.4779,VALID,-0.0849042,VALID,18.3874,VALID,208,VALID,0,
1999-10-21, 03:32:00,VALID,0,VALID,96.5275,VALID,-0.0849042,VALID,18.3777,VALID,208,VALID,0,
1999-10-21, 03:33:00,VALID,0,VALID,96.5148,VALID,-0.0849042,VALID,18.3574,VALID,208,VALID,0,
1999-10-21, 03:34:00,VALID,0,VALID,96.4169,VALID,-0.0679233,VALID,18.3615,VALID,208,VALID,0,
1999-10-21, 03:35:00,VALID,0,VALID,96.4919,VALID,-0.0169808,VALID,18.3541,VALID,208,VALID,0,
1999-10-21, 03:36:00,VALID,0,VALID,96.5326,VALID,0.0339617,VALID,18.347,VALID,208,VALID,0,
1999-10-21, 03:37:00,VALID,0,VALID,96.6051,VALID,0.0679233,VALID,18.3407,VALID,203,VALID,0,
1999-10-21, 03:38:00,VALID,0,VALID,96.5351,VALID,0,VALID,18.3472,VALID,177,VALID,0,
1999-10-21, 03:39:00,VALID,0,VALID,96.5148,VALID,0,VALID,18.3341,VALID,176,VALID,0,
1999-10-21, 03:40:00,VALID,0,VALID,96.4105,VALID,0.0509425,VALID,18.3112,VALID,177,VALID,0,
1999-10-21, 03:41:00,VALID,0,VALID,96.2261,VALID,0.0509425,VALID,18.3177,VALID,177,VALID,0,
1999-10-21, 03:42:00,VALID,0,VALID,95.9388,VALID,0.0339617,VALID,18.2948,VALID,177,VALID,0,
1999-10-21, 03:43:00,VALID,0,VALID,95.7747,VALID,0.0169808,VALID,18.2987,VALID,177,VALID,0,
1999-10-21, 03:44:00,VALID,0,VALID,96.0634,VALID,0.0509425,VALID,18.3468,VALID,172,VALID,0,
1999-10-21, 03:45:00,VALID,0,VALID,96.2732,VALID,0.0849042,VALID,18.3825,VALID,170,VALID,0,
1999-10-21, 03:46:00,VALID,0,VALID,96.1791,VALID,0.0509425,VALID,18.3759,VALID,170,VALID,0,
1999-10-21, 03:47:00,VALID,0,VALID,96.1409,VALID,0.0679233,VALID,18.3989,VALID,170,VALID,0,
1999-10-21, 03:48:00,VALID,0,VALID,95.879,VALID,0.0679233,VALID,18.3597,VALID,170,VALID,0,
1999-10-21, 03:49:01,VALID,0,VALID,95.6081,VALID,0.0339617,VALID,18.3696,VALID,169,VALID,0,
1999-10-21, 03:50:00,VALID,0,VALID,95.3093,VALID,0.0169808,VALID,18.3795,VALID,134,VALID,0,
1999-10-21, 03:51:00,VALID,0,VALID,95.1173,VALID,0.0509425,VALID,18.4218,VALID,119,VALID,0,
1999-10-21, 03:52:00,VALID,0,VALID,94.7714,VALID,0.0339617,VALID,18.4347,VALID,122,VALID,0,
1999-10-21, 03:53:00,VALID,0,VALID,94.5336,VALID,0,VALID,18.447,VALID,122,VALID,0,
1999-10-21, 03:54:00,VALID,0,VALID,94.5387,VALID,0.0339617,VALID,18.4671,VALID,122,VALID,0,
1999-10-21, 03:55:00,VALID,0,VALID,94.4052,VALID,0.0169808,VALID,18.4636,VALID,122,VALID,0,
1999-10-21, 03:56:00,VALID,0,VALID,94.5578,VALID,0.0169808,VALID,18.4668,VALID,143,VALID,0,
1999-10-21, 03:57:00,VALID,0,VALID,94.5934,VALID,0.0169808,VALID,18.4643,VALID,152,VALID,0,
1999-10-21, 03:58:00,VALID,0,VALID,94.5387,VALID,0,VALID,18.4283,VALID,153,VALID,0,
1999-10-21, 03:59:00,VALID,0,VALID,94.6735,VALID,0,VALID,18.4315,VALID,153,VALID,0,
1999-10-21, 04:00:00,VALID,0,VALID,95.2127,VALID,0,VALID,18.4313,VALID,153,VALID,0,
1999-10-21, 04:01:00,VALID,0,VALID,95.4466,VALID,0,VALID,18.4183,VALID,153,VALID,0,
1999-10-21, 04:02:00,VALID,0,VALID,95.2801,VALID,0,VALID,18.3925,VALID,153,VALID,0,
1999-10-21, 04:03:00,VALID,0,VALID,95.2457,VALID,0.0169808,VALID,18.3768,VALID,153,VALID,0,
1999-10-21, 04:04:00,VALID,0,VALID,95.6094,VALID,0,VALID,18.3472,VALID,153,VALID,0,
1999-10-21, 04:05:00,VALID,0,VALID,96.1053,VALID,0,VALID,18.3147,VALID,153,VALID,0,
1999-10-21, 04:06:00,VALID,0,VALID,96.4385,VALID,0.0339617,VALID,18.2925,VALID,147,VALID,0,
1999-10-21, 04:07:00,VALID,0,VALID,96.5339,VALID,0.0169808,VALID,18.2731,VALID,125,VALID,0,
1999-10-21, 04:08:00,VALID,0,VALID,96.1893,VALID,0.0169808,VALID,18.2763,VALID,90,VALID,0,
1999-10-21, 04:09:00,VALID,0,VALID,96.2923,VALID,0.0339617,VALID,18.302,VALID,93,VALID,0,
1999-10-21, 04:10:00,VALID,0,VALID,96.6547,VALID,0.0169808,VALID,18.2763,VALID,99,VALID,0,
1999-10-21, 04:11:00,VALID,0,VALID,96.5504,VALID,0.0169808,VALID,18.2373,VALID,101,VALID,0,
1999-10-21, 04:12:01,VALID,0,VALID,96.1536,VALID,0,VALID,18.2347,VALID,82,VALID,0,
1999-10-21, 04:13:00,VALID,0,VALID,96.3635,VALID,0.0339617,VALID,18.2532,VALID,87,VALID,0,
1999-10-21, 04:14:00,VALID,0,VALID,96.352,VALID,0,VALID,18.2629,VALID,89,VALID,0.524071,